{"data":{"norad_id":50809,"epoch":"2026-09-19T19:34:40.028448Z","epoch_age_seconds":104097,"freshness":"FRESH","line1":"1 50809U 22001G   26262.81574107  .00000867  00000+0  39690-4 0  9999","line2":"2 50809  53.1612 354.9640 0001159  71.9824 288.1303 15.31703650260026","mean_motion":15.3170365,"eccentricity":0.0001159,"inclination_deg":53.1612,"raan_deg":354.964,"arg_perigee_deg":71.9824,"mean_anomaly_deg":288.1303,"bstar":3.969e-5,"rev_number":26002,"period_min":94.012963930719,"perigee_km":469.93533120448,"apogee_km":471.52289836989,"semimajor_km":6848.8661147872,"source":"CELESTRAK","updated_at":"2026-09-20T09:00:39.575958Z"}}